User: anonymous   Login
Location: ???????
(55.4362°N, 38.1183°E)
Time: 09:32:35
(UTC+00:00)
Language:

M-CUBED/EXP-1 PRIME - Orbit

View from above orbital plane
View from above orbital plane
View from above satellite
View from above satellite

Ground track
Ground track

The orbit data is extracted from the following two-line orbital elements,

1 37855U 11061F   22276.74523218  .00019024  00000-0  79162-3 0  9992
2 37855 101.7217  93.3980 0147595  97.4649 264.3364 15.14424084597610
Epoch (UTC): 03 October 2022 17:53:08
Eccentricity: 0.0147595
inclination: 101.7217°
perigee height: 421 km
apogee height: 624 km
right ascension of ascending node: 93.3980°
argument of perigee: 97.4649°
revolutions per day: 15.14424084
mean anomaly at epoch: 264.3364°
orbit number at epoch: 59761

The dashed part of the orbit path shows where the satellite is in the earth's shadow,  

DLR